OBJECT D

Basic Information
Catalog Number:
100654
Catalog Name:
OBJECT D
International ID:
2026-205D
Orbit Center:
EARTH
Object Status:
In Orbit
Launch Date:
2026-09-10 UTC
Country:
中国 (CN)
Orbital Information
Data Source: International Orbital Data AOE Orbital Data
Epoch Time: 2026-09-22T03:49:22+0800 2026-09-21T16:00:00+0800
Semi-major Axis: 6897.104km 6897.034km
Eccentricity: 0.0006737 0.000661
Inclination: 44.981° 44.996°
Argument of Perigee: 315.231° 317.870°
RAAN: 46.911° 49.518°
Mean Anomaly: 44.802° 231.438°
Perigee: 514.32km 514.338km
Apogee: 523.614km 523.456km
Period: 95.008分钟 95.006分钟
Mean Motion: 15.156631 15.156862
Detailed Information
Launch Site:
JSC
Orbital Altitude:
LEO
Data Source:
AOE Working Group
Reference Frame:
TEME
Time System:
UTC
Epoch Type:
SGP4
2D Orbital Map
3D Orbital Map
Orbital Altitude Analysis
Orbital Inclination Analysis
Orbit Comprehensive Analysis Chart
View Comprehensive Chart